Location: Horowhenua
(40.7500°S, 175.3333°E)
Time: 05:51:54
(UTC+00:00)

Cosmos 1809 Rocket - Pass Details

Date: 28 January 2023
Orbit: 942 x 962 km, 82.5° (Epoch: 01 April)

Event Time Altitude Azimuth Distance (km) Brightness Sun altitude
Rises 16:07:01 0° 189° (S) 3,678 7.9 -12.8°
Reaches altitude 10° 16:09:33 10° 189° (S) 2,722 7.2 -12.4°
Maximum altitude 16:15:48 84° 275° (W) 974 4.5 -11.5°
Drops below altitude 10° 16:21:57 10° 3° (N) 2,675 6.5 -10.5°
Sets 16:24:24 0° 4° (N) 3,609 7.2 -10.1°
